Regional Weather Roundup
Issued by NWS Nashville, TN

Home | Current Version | Previous Version | Text Only | Print | Product List | Glossary On
Versions: 1 2 3 4 5 6 7 8 9 10 11 12 13 14 15 16 17 18 19 20 21 22 23 24 25 26 27 28 29 30 31 32 33 34 35 36 37 38 39 40 41 42 43 44 45 46 47 48 49 50
000
ASUS44 KOHX 011115
RWROHX
MIDDLE TENNESSEE HOURLY WEATHER ROUNDUP
NATIONAL WEATHER SERVICE NASHVILLE TN
600 AM CDT FRI AUG 01 2014

NOTE: "FAIR" INDICATES FEW OR NO CLOUDS BELOW 12,000 FEET WITH
NO SIGNIFICANT WEATHER AND/OR OBSTRUCTIONS TO VISIBILITY.

* THESE REPORTS ARE NOT UNDER NWS QUALITY CONTROL AND MAY NOT
  REPORT WEATHER SUCH AS PRECIPITATION AND FOG.


TNZ005>011-023>034-057-059-062>066-078-080-011200
...NORTHERN MIDDLE TENNESSEE...

CITY           SKY/WX    TMP DP  RH WIND       PRES   REMARKS
CLARKSVILLE    CLEAR     60  58  92 CALM      30.08R FOG
CROSSVILLE     CLEAR     60  57  89 CALM      30.14R FOG
GALLATIN         N/A     60  60 100 CALM      30.09R
DICKSON        CLEAR     64  61  88 CALM      30.07S
LEBANON        CLEAR     60  58  93 CALM      30.07R
LIVINGSTON       N/A     61  57  86 CALM      30.11R
NASHVILLE      PTCLDY    63  61  93 SE3       30.08R
WEST NASHVILLE   N/A     61  61 100 CALM      30.08R
PORTLAND       CLEAR     59  57  94 CALM      30.08R
SMYRNA         CLEAR     61  61 100 CALM      30.09R
SPARTA         CLEAR     61  59  94 CALM      30.10R
$$
TNZ056-058-060-061-075>077-079-093>097-011200
...SOUTHERN MIDDLE TENNESSEE...

CITY           SKY/WX    TMP DP  RH WIND       PRES   REMARKS
COLUMBIA       CLEAR     63  61  94 CALM      30.07R
FAYETTEVILLE   CLEAR     61  59  94 NE9G20    30.08S
LEWISBURG      CLEAR     58  56  93 CALM      30.08R
MCMINNVILLE    MOCLDY    61  61 100 CALM      30.10R
SHELBYVILLE    PTCLDY    61  61 100 E5        30.09S
TULLAHOMA      CLEAR     61  57  88 CALM      30.10S
WINCHESTER     CLEAR     61  61 100 CALM      30.10R
$$


...KEY TO REMARKS...
VSB - VISIBILITY IN MILES
WCI - WIND CHILL INDEX
HX  - HEAT INDEX



USA.gov is the U.S. government's official web portal to all federal, state and local government web resources and services.